TimeCDT,TemperatureF,Dew PointF,Humidity,Sea Level PressureIn,VisibilityMPH,Wind Direction,Wind SpeedMPH,Gust SpeedMPH,PrecipitationIn,Events,Conditions,WindDirDegrees,DateUTC
12:58 AM,44.8,37.0,74,30.29,10.0,Calm,Calm,-,N/A,,Clear,0,2013-03-13 05:58:00
1:58 AM,43.5,35.1,72,30.31,10.0,North,4.6,-,N/A,,Clear,350,2013-03-13 06:58:00
2:58 AM,44.8,34.5,67,30.32,10.0,NNE,2.3,-,N/A,,Clear,20,2013-03-13 07:58:00
3:58 AM,43.9,34.9,71,30.32,10.0,Calm,Calm,-,N/A,,Clear,0,2013-03-13 08:58:00
4:58 AM,41.4,34.0,75,30.34,10.0,Calm,Calm,-,N/A,,Clear,0,2013-03-13 09:58:00
5:58 AM,40.3,32.7,74,30.37,10.0,Calm,Calm,-,N/A,,Clear,0,2013-03-13 10:58:00
6:58 AM,40.6,33.4,75,30.39,10.0,NNE,2.3,-,N/A,,Clear,30,2013-03-13 11:58:00
7:58 AM,37.4,32.5,83,30.41,10.0,South,1.2,-,N/A,,Clear,170,2013-03-13 12:58:00
8:58 AM,45.0,36.0,71,30.45,10.0,Calm,Calm,-,N/A,,Clear,0,2013-03-13 13:58:00
9:58 AM,50.4,34.0,53,30.46,10.0,NNE,3.5,-,N/A,,Clear,30,2013-03-13 14:58:00
10:58 AM,54.9,30.0,39,30.47,10.0,ENE,4.6,-,N/A,,Clear,60,2013-03-13 15:58:00
11:58 AM,59.0,28.6,31,30.47,10.0,NW,5.8,-,N/A,,Clear,320,2013-03-13 16:58:00
12:58 PM,60.3,25.5,27,30.45,10.0,Variable,4.6,-,N/A,,Clear,0,2013-03-13 17:58:00
1:58 PM,62.6,27.0,26,30.43,10.0,NNE,10.4,-,N/A,,Clear,20,2013-03-13 18:58:00
2:58 PM,63.9,28.9,27,30.40,10.0,Variable,5.8,-,N/A,,Clear,0,2013-03-13 19:58:00
3:58 PM,65.1,28.0,25,30.39,10.0,NNW,12.7,-,N/A,,Clear,340,2013-03-13 20:58:00
4:48 PM,66.2,28.4,24,30.36,0.8,NW,8.1,19.6,N/A,,Haze,310,2013-03-13 21:48:00
4:58 PM,66.2,27.7,24,30.37,7.0,North,11.5,-,N/A,,Clear,360,2013-03-13 21:58:00
5:58 PM,64.4,26.6,24,30.37,7.0,NNW,10.4,-,N/A,,Clear,340,2013-03-13 22:58:00
6:58 PM,62.1,29.7,29,30.36,7.0,NNE,5.8,-,N/A,,Clear,20,2013-03-13 23:58:00
7:08 PM,60.8,30.2,31,30.35,2.5,NNE,3.5,-,N/A,,Haze,20,2013-03-14 00:08:00
7:58 PM,57.9,28.8,33,30.37,7.0,North,3.5,-,N/A,,Clear,10,2013-03-14 00:58:00
8:58 PM,56.8,27.1,32,30.38,10.0,Calm,Calm,-,N/A,,Clear,0,2013-03-14 01:58:00
9:58 PM,46.8,34.9,63,30.39,10.0,East,4.6,-,N/A,,Clear,80,2013-03-14 02:58:00
10:58 PM,47.8,30.4,51,30.40,10.0,NE,1.2,-,N/A,,Clear,40,2013-03-14 03:58:00
11:58 PM,46.8,31.1,55,30.40,10.0,Calm,Calm,-,N/A,,Clear,360,2013-03-14 04:58:00